When you browse on this site, cookies collect data to enhance your experience and personalize the content and advertising you see.
Visit our Privacy Policy to learn more. By continuing to use the site, you agree to this use of cookies and data.
  • en Suisse
  • Liste des pays
  • À 7 jours
  • Température de l'eau
  • Carte satellitaire
  • Carte météo
  • Widgets météo
  • user-avatar
    Se connecter

    Météo par heure à Kalgoorlie

    Ce jour, 10 Décembre, Lundi

    Heure Température Précipitation Vent Pression Humidité
    00:00 +23°C° 0.7 mm 11 m/s 727 mmHg 68%
    01:00 +23°C° 0.7 mm 10 m/s 727 mmHg 71%
    02:00 +23°C° 0 mm 9 m/s 727 mmHg 71%
    03:00 +23°C° 0.1 mm 8 m/s 727 mmHg 74%
    04:00 +23°C° 0.1 mm 8 m/s 727 mmHg 78%
    05:00 +22°C° 0.1 mm 7 m/s 727 mmHg 81%
    06:00 +24°C° 0 mm 7 m/s 727 mmHg 75%
    07:00 +26°C° 0 mm 7 m/s 727 mmHg 69%
    08:00 +28°C° 0 mm 7 m/s 727 mmHg 62%
    09:00 +30°C° 0 mm 7 m/s 727 mmHg 55%
    10:00 +33°C° 0 mm 6 m/s 726 mmHg 47%
    11:00 +35°C° 0 mm 6 m/s 726 mmHg 40%
    12:00 +36°C° 0 mm 5 m/s 725 mmHg 36%
    13:00 +37°C° 0 mm 5 m/s 725 mmHg 32%
    14:00 +40°C° 0 mm 4 m/s 724 mmHg 28%
    15:00 +39°C° 0.1 mm 5 m/s 723 mmHg 28%
    16:00 +39°C° 0.1 mm 6 m/s 723 mmHg 29%
    17:00 +38°C° 0.1 mm 6 m/s 722 mmHg 29%
    18:00 +36°C° 0.1 mm 6 m/s 722 mmHg 35%
    19:00 +34°C° 0.1 mm 6 m/s 722 mmHg 41%
    20:00 +32°C° 0.1 mm 5 m/s 722 mmHg 46%
    21:00 +30°C° 0 mm 6 m/s 722 mmHg 53%
    22:00 +29°C° 0 mm 7 m/s 722 mmHg 59%
    23:00 +27°C° 0 mm 8 m/s 723 mmHg 65%

    Demain, 11 Décembre, Mardi

    Heure Température Précipitation Vent Pression Humidité
    00:00 +26°C° 0 mm 8 m/s 723 mmHg 66%
    01:00 +24°C° 0 mm 7 m/s 723 mmHg 68%
    02:00 +23°C° 0 mm 7 m/s 723 mmHg 69%
    03:00 +23°C° 0 mm 5 m/s 723 mmHg 71%
    04:00 +23°C° 0 mm 4 m/s 723 mmHg 72%
    05:00 +24°C° 0 mm 3 m/s 723 mmHg 73%
    06:00 +26°C° 0 mm 2 m/s 724 mmHg 69%
    07:00 +27°C° 0 mm 1 m/s 724 mmHg 65%
    08:00 +26°C° 0 mm 0 m/s 724 mmHg 61%
    09:00 +30°C° 0 mm 1 m/s 724 mmHg 53%
    10:00 +32°C° 0 mm 2 m/s 724 mmHg 45%
    11:00 +35°C° 0 mm 3 m/s 724 mmHg 36%
    12:00 +35°C° 0 mm 3 m/s 724 mmHg 33%
    13:00 +36°C° 0 mm 4 m/s 723 mmHg 30%
    14:00 +36°C° 0 mm 4 m/s 723 mmHg 27%
    15:00 +36°C° 0 mm 5 m/s 723 mmHg 27%
    16:00 +36°C° 0 mm 5 m/s 723 mmHg 27%
    17:00 +36°C° 0 mm 5 m/s 723 mmHg 27%
    18:00 +35°C° 0 mm 5 m/s 723 mmHg 29%
    19:00 +34°C° 0 mm 5 m/s 724 mmHg 31%
    20:00 +33°C° 0 mm 5 m/s 724 mmHg 33%
    21:00 +30°C° 0 mm 6 m/s 725 mmHg 39%
    22:00 +28°C° 0 mm 6 m/s 725 mmHg 45%
    23:00 +27°C° 0 mm 7 m/s 726 mmHg 51%

    Après-demain, 12 Décembre, Mercredi

    Heure Température Précipitation Vent Pression Humidité
    00:00 +24°C° 0 mm 7 m/s 726 mmHg 54%
    01:00 +22°C° 0 mm 7 m/s 726 mmHg 56%
    02:00 +21°C° 0 mm 7 m/s 726 mmHg 58%
    03:00 +20°C° 0 mm 7 m/s 726 mmHg 58%
    04:00 +20°C° 0 mm 6 m/s 727 mmHg 58%
    05:00 +19°C° 0 mm 6 m/s 727 mmHg 58%
    06:00 +20°C° 0 mm 6 m/s 728 mmHg 57%
    07:00 +21°C° 0 mm 6 m/s 729 mmHg 56%
    08:00 +22°C° 0 mm 6 m/s 729 mmHg 55%
    09:00 +23°C° 0 mm 6 m/s 729 mmHg 51%
    10:00 +26°C° 0 mm 6 m/s 729 mmHg 47%
    11:00 +27°C° 0 mm 6 m/s 730 mmHg 43%
    12:00 +28°C° 0 mm 6 m/s 729 mmHg 40%
    13:00 +29°C° 0 mm 5 m/s 729 mmHg 37%
    14:00 +29°C° 0 mm 5 m/s 728 mmHg 34%
    15:00 +29°C° 0 mm 5 m/s 728 mmHg 34%
    16:00 +29°C° 0 mm 6 m/s 728 mmHg 34%
    17:00 +29°C° 0 mm 6 m/s 728 mmHg 34%
    18:00 +28°C° 0 mm 7 m/s 729 mmHg 37%
    19:00 +27°C° 0 mm 8 m/s 730 mmHg 41%
    20:00 +24°C° 0 mm 9 m/s 730 mmHg 44%
    21:00 +23°C° 0 mm 9 m/s 731 mmHg 46%
    22:00 +22°C° 0 mm 9 m/s 731 mmHg 49%
    23:00 +21°C° 0 mm 10 m/s 732 mmHg 51%

    13 Décembre, Jeudi

    Heure Température Précipitation Vent Pression Humidité
    00:00 +19°C° 0 mm 9 m/s 731 mmHg 58%
    01:00 +17°C° 0 mm 9 m/s 731 mmHg 64%
    02:00 +16°C° 0 mm 8 m/s 731 mmHg 70%
    03:00 +16°C° 0 mm 8 m/s 731 mmHg 70%
    04:00 +15°C° 0 mm 8 m/s 731 mmHg 70%
    05:00 +15°C° 0 mm 7 m/s 731 mmHg 71%
    06:00 +16°C° 0 mm 7 m/s 731 mmHg 65%
    07:00 +17°C° 0 mm 7 m/s 732 mmHg 59%
    08:00 +18°C° 0 mm 7 m/s 732 mmHg 52%
    09:00 +21°C° 0 mm 7 m/s 732 mmHg 44%
    10:00 +23°C° 0 mm 7 m/s 732 mmHg 36%
    11:00 +26°C° 0 mm 7 m/s 732 mmHg 28%
    12:00 +28°C° 0 mm 7 m/s 731 mmHg 25%
    13:00 +29°C° 0 mm 6 m/s 730 mmHg 22%
    14:00 +30°C° 0 mm 6 m/s 730 mmHg 20%
    15:00 +30°C° 0 mm 6 m/s 730 mmHg 19%
    16:00 +30°C° 0 mm 6 m/s 730 mmHg 19%
    17:00 +30°C° 0 mm 6 m/s 730 mmHg 18%
    18:00 +29°C° 0 mm 6 m/s 730 mmHg 20%
    19:00 +28°C° 0 mm 6 m/s 730 mmHg 21%
    20:00 +27°C° 0 mm 6 m/s 731 mmHg 23%
    21:00 +26°C° 0 mm 6 m/s 731 mmHg 26%
    22:00 +24°C° 0 mm 7 m/s 731 mmHg 29%
    23:00 +24°C° 0 mm 7 m/s 731 mmHg 32%

    14 Décembre, Vendredi

    Heure Température Précipitation Vent Pression Humidité
    00:00 +22°C° 0 mm 7 m/s 731 mmHg 38%
    01:00 +21°C° 0 mm 8 m/s 730 mmHg 43%
    02:00 +20°C° 0 mm 8 m/s 730 mmHg 48%
    03:00 +20°C° 0 mm 8 m/s 730 mmHg 51%
    04:00 +18°C° 0 mm 8 m/s 730 mmHg 53%
    05:00 +17°C° 0 mm 8 m/s 730 mmHg 55%
    06:00 +20°C° 0 mm 8 m/s 730 mmHg 51%
    07:00 +21°C° 0 mm 7 m/s 730 mmHg 47%
    08:00 +22°C° 0 mm 7 m/s 731 mmHg 43%
    09:00 +24°C° 0 mm 7 m/s 730 mmHg 37%
    10:00 +27°C° 0 mm 7 m/s 730 mmHg 31%
    11:00 +29°C° 0 mm 7 m/s 729 mmHg 25%
    12:00 +30°C° 0 mm 6 m/s 729 mmHg 23%
    13:00 +32°C° 0 mm 5 m/s 728 mmHg 21%
    14:00 +33°C° 0 mm 4 m/s 728 mmHg 19%
    15:00 +33°C° 0 mm 4 m/s 728 mmHg 18%
    16:00 +33°C° 0 mm 4 m/s 727 mmHg 18%
    17:00 +33°C° 0 mm 3 m/s 727 mmHg 17%
    18:00 +33°C° 0 mm 4 m/s 727 mmHg 18%
    19:00 +32°C° 0 mm 5 m/s 728 mmHg 19%
    20:00 +30°C° 0 mm 6 m/s 728 mmHg 19%
    21:00 +29°C° 0 mm 6 m/s 728 mmHg 19%
    22:00 +28°C° 0 mm 6 m/s 728 mmHg 19%
    23:00 +27°C° 0 mm 7 m/s 728 mmHg 19%

    15 Décembre, Samedi

    Heure Température Précipitation Vent Pression Humidité
    00:00 +27°C° 0 mm 6 m/s 728 mmHg 20%
    01:00 +26°C° 0 mm 6 m/s 727 mmHg 21%
    02:00 +24°C° 0 mm 6 m/s 727 mmHg 23%
    03:00 +24°C° 0 mm 6 m/s 727 mmHg 25%
    04:00 +23°C° 0 mm 6 m/s 727 mmHg 27%
    05:00 +23°C° 0 mm 5 m/s 727 mmHg 29%
    06:00 +24°C° 0 mm 6 m/s 728 mmHg 28%
    07:00 +26°C° 0 mm 6 m/s 728 mmHg 26%
    08:00 +28°C° 0 mm 7 m/s 728 mmHg 25%
    09:00 +29°C° 0 mm 6 m/s 728 mmHg 22%
    10:00 +32°C° 0 mm 6 m/s 727 mmHg 19%
    11:00 +34°C° 0 mm 5 m/s 727 mmHg 16%
    12:00 +34°C° 0 mm 5 m/s 726 mmHg 16%
    13:00 +34°C° 0 mm 5 m/s 726 mmHg 15%
    14:00 +35°C° 0 mm 4 m/s 725 mmHg 14%
    15:00 +35°C° 0 mm 4 m/s 725 mmHg 14%
    16:00 +35°C° 0 mm 5 m/s 725 mmHg 14%
    17:00 +36°C° 0 mm 5 m/s 724 mmHg 14%
    18:00 +35°C° 0 mm 5 m/s 724 mmHg 15%
    19:00 +34°C° 0 mm 6 m/s 724 mmHg 16%
    20:00 +33°C° 0 mm 7 m/s 724 mmHg 17%
    21:00 +32°C° 0 mm 7 m/s 724 mmHg 18%
    22:00 +31°C° 0 mm 8 m/s 724 mmHg 20%
    23:00 +29°C° 0 mm 8 m/s 724 mmHg 21%
    Voir plus